EW0609 Weather Reports


time (UTC)temp
C
wind
direction
speed
KPH
gust
KPH
rain 1hr
cm
rain 24hr
cm
rain mn
cm
humidity
%
barometer
mb
20260902161802 31 209 9.7 17.7 0.00 0.00 0.00 45 1019.0
20260902161301 30 175 6.4 20.9 0.00 0.00 0.00 47 1019.0
20260902160801 30 223 9.7 20.9 0.00 0.00 0.00 46 1019.1
20260902160301 29 113 6.4 11.3 0.00 0.00 0.00 48 1019.0
20260902155803 28 128 3.2 11.3 0.00 0.00 0.00 49 1019.1
20260902155300 28 171 8.0 9.7 0.00 0.00 0.00 48 1019.1
20260902154759 28 200 6.4 9.7 0.00 0.00 0.00 48 1019.2
20260902154300 28 237 3.2 9.7 0.00 0.00 0.00 50 1019.1
20260902153800 27 127 6.4 9.7 0.00 0.00 0.00 49 1019.2
20260902153302 27 195 6.4 11.3 0.00 0.00 0.00 49 1019.0
20260902152759 27 180 6.4 14.5 0.00 0.00 0.00 49 1018.8
20260902152301 27 189 4.8 14.5 0.00 0.00 0.00 50 1019.0
20260902151801 27 216 4.8 9.7 0.00 0.00 0.00 51 1019.0
20260902151312 27 185 4.8 9.7 0.00 0.00 0.00 50 1019.0
20260902150914 26 237 3.2 8.0 0.00 0.00 0.00 52 1019.1
20260902145802 25 159 3.2 14.5 0.00 0.00 0.00 52 1019.0
20260902145305 25 209 4.8 14.5 0.00 0.00 0.00 53 1019.0
20260902144800 25 144 1.6 8.0 0.00 0.00 0.00 53 1019.1
20260902144301 25 166 4.8 9.7 0.00 0.00 0.00 53 1019.0
20260902144128 25 190 3.2 9.7 0.00 0.00 0.00 53 1018.8
20260902143300 25 175 3.2 11.3 0.00 0.00 0.00 54 1018.7
20260902143124 25 188 8.0 11.3 0.00 0.00 0.00 52 1018.8
20260902142301 26 155 6.4 14.5 0.00 0.00 0.00 52 1018.7
20260902141800 25 199 9.7 17.7 0.00 0.00 0.00 52 1018.7
20260902141302 25 213 8.0 17.7 0.00 0.00 0.00 52 1018.7
20260902140801 25 197 8.0 14.5 0.00 0.00 0.00 53 1018.6
20260902140301 25 228 8.0 14.5 0.00 0.00 0.00 55 1018.6
20260902140129 24 168 8.0 14.5 0.00 0.00 0.00 55 1018.6
20260902135300 24 169 6.4 17.7 0.00 0.00 0.00 55 1018.6
20260902134800 24 210 6.4 20.9 0.00 0.00 0.00 55 1018.6
20260902134301 23 186 6.4 20.9 0.00 0.00 0.00 55 1018.6
20260902133803 23 221 6.4 16.1 0.00 0.00 0.00 56 1018.5
20260902133302 23 166 3.2 16.1 0.00 0.00 0.00 56 1018.5
20260902132800 23 186 6.4 16.1 0.00 0.00 0.00 56 1018.4
20260902132301 23 234 8.0 14.5 0.00 0.00 0.00 57 1018.4
20260902132124 23 190 8.0 14.5 0.00 0.00 0.00 56 1018.2
20260902131302 23 178 6.4 14.5 0.00 0.00 0.00 56 1018.2
20260902130801 23 169 6.4 17.7 0.00 0.00 0.00 56 1018.2
20260902130300 23 190 6.4 17.7 0.00 0.00 0.00 56 1018.1
20260902125801 23 224 6.4 16.1 0.00 0.00 0.00 56 1018.2
20260902125300 23 158 6.4 16.1 0.00 0.00 0.00 56 1018.0
20260902124801 22 169 6.4 16.1 0.00 0.00 0.00 57 1018.0
20260902124300 22 135 6.4 16.1 0.00 0.00 0.00 57 1017.8
20260902123803 22 176 6.4 16.1 0.00 0.00 0.00 57 1017.7
20260902123301 22 190 9.7 16.1 0.00 0.00 0.00 57 1017.8
20260902122800 22 192 8.0 16.1 0.00 0.00 0.00 57 1017.7
20260902122300 22 193 6.4 16.1 0.00 0.00 0.00 57 1017.6
20260902121801 22 238 4.8 9.7 0.00 0.00 0.00 57 1017.6
20260902121301 22 206 4.8 14.5 0.00 0.00 0.00 57 1017.6
20260902120801 22 135 6.4 14.5 0.00 0.00 0.00 56 1017.5
20260902120301 22 189 6.4 14.5 0.00 0.00 0.00 56 1017.4
20260902115801 22 188 6.4 16.1 0.00 0.00 0.00 56 1017.4
20260902115307 23 224 8.0 20.9 0.00 0.00 0.00 55 1017.4
20260902114801 23 189 9.7 22.5 0.00 0.00 0.00 55 1017.4
20260902114623 23 221 9.7 22.5 0.00 0.00 0.00 55 1017.4
20260902113800 23 209 9.7 19.3 0.00 0.00 0.00 55 1017.4
20260902113300 22 186 8.0 17.7 0.00 0.00 0.00 56 1017.4
20260902112800 22 197 6.4 14.5 0.00 0.00 0.00 56 1017.3
20260902112305 22 186 6.4 17.7 0.00 0.00 0.00 56 1017.3
20260902111800 22 149 6.4 17.7 0.00 0.00 0.00 55 1017.3
20260902111301 23 165 6.4 14.5 0.00 0.00 0.00 55 1017.3
20260902110800 23 192 8.0 14.5 0.00 0.00 0.00 55 1017.4
20260902110301 23 292 8.0 16.1 0.00 0.00 0.00 55 1017.3
20260902105801 23 220 8.0 16.1 0.00 0.00 0.00 55 1017.4
20260902105300 23 197 8.0 16.1 0.00 0.00 0.00 55 1017.4
20260902105120 23 202 6.4 16.1 0.00 0.00 0.00 55 1017.5
20260902104300 23 188 6.4 16.1 0.00 0.00 0.00 55 1017.5
20260902103801 22 199 8.0 16.1 0.00 0.00 0.00 55 1017.5
20260902103300 22 165 6.4 16.1 0.00 0.00 0.00 56 1017.5
20260902102801 22 178 6.4 17.7 0.00 0.00 0.00 56 1017.5
20260902102307 22 176 8.0 17.7 0.00 0.00 0.00 55 1017.6
20260902101801 23 175 6.4 17.7 0.00 0.00 0.00 54 1017.7
20260902101625 23 103 3.2 17.7 0.00 0.00 0.00 54 1017.6
20260902100801 23 120 6.4 19.3 0.00 0.00 0.00 54 1017.6
20260902100301 23 173 6.4 19.3 0.00 0.00 0.00 53 1017.6
20260902095802 23 182 8.0 17.7 0.00 0.00 0.00 53 1017.7
20260902095625 23 228 8.0 17.7 0.00 0.00 0.00 53 1017.7
20260902094800 23 220 8.0 16.1 0.00 0.00 0.00 53 1017.7
20260902094300 23 164 8.0 20.9 0.00 0.00 0.00 52 1017.6
20260902093800 23 185 6.4 20.9 0.00 0.00 0.00 52 1017.7
20260902093301 23 123 8.0 19.3 0.00 0.00 0.00 52 1017.7
20260902092759 23 197 8.0 19.3 0.00 0.00 0.00 52 1017.6
20260902092300 23 166 6.4 20.9 0.00 0.00 0.00 52 1017.7
20260902091801 23 176 9.7 20.9 0.00 0.00 0.00 51 1017.7
20260902091300 24 231 8.0 20.9 0.00 0.00 0.00 51 1017.7
20260902090801 24 231 9.7 20.9 0.00 0.00 0.00 51 1017.8
20260902090301 24 240 6.4 19.3 0.00 0.00 0.00 51 1017.7
20260902085800 24 266 6.4 19.3 0.00 0.00 0.00 51 1017.8
20260902085301 24 199 8.0 19.3 0.00 0.00 0.00 52 1018.0
20260902084800 23 219 4.8 11.3 0.00 0.00 0.00 52 1018.0
20260902084301 23 223 3.2 19.3 0.00 0.00 0.00 51 1017.8
20260902083759 23 145 8.0 19.3 0.00 0.00 0.00 51 1018.0
20260902083301 23 180 8.0 17.7 0.00 0.00 0.00 51 1018.0
20260902082801 23 149 6.4 11.3 0.00 0.00 0.00 51 1018.0
20260902082300 23 162 6.4 14.5 0.00 0.00 0.00 52 1018.1
20260902081800 23 152 6.4 14.5 0.00 0.00 0.00 52 1018.0
20260902081300 23 189 6.4 16.1 0.00 0.00 0.00 52 1018.1
20260902080801 23 193 6.4 16.1 0.00 0.00 0.00 52 1018.1
20260902080625 23 154 6.4 16.1 0.00 0.00 0.00 52 1018.2
20260902080126 23 213 8.0 16.1 0.00 0.00 0.00 52 1018.1
20260902075622 23 182 4.8 9.7 0.00 0.00 0.00 51 1018.1
20260902074800 23 159 6.4 16.1 0.00 0.00 0.00 51 1018.1
20260902074625 23 186 9.7 16.1 0.00 0.00 0.00 51 1018.1
20260902073759 23 172 6.4 14.5 0.00 0.00 0.00 51 1018.0
20260902073300 23 158 4.8 16.1 0.00 0.00 0.00 51 1018.1
20260902072800 23 121 6.4 16.1 0.00 0.00 0.00 52 1018.1
20260902072617 23 172 6.4 16.1 0.00 0.00 0.00 52 1018.2
20260902071801 23 162 6.4 14.5 0.00 0.00 0.00 51 1018.2
20260902071300 23 206 4.8 17.7 0.00 0.00 0.00 51 1018.1
20260902070802 23 162 8.0 17.7 0.00 0.00 0.00 51 1018.2
20260902070302 23 234 4.8 11.3 0.00 0.00 0.00 51 1018.2
20260902065800 23 195 6.4 11.3 0.00 0.00 0.00 51 1018.3
20260902065300 23 206 4.8 11.3 0.00 0.00 0.00 52 1018.3
20260902064800 23 161 4.8 11.3 0.00 0.00 0.00 51 1018.2
20260902064628 24 199 4.8 11.3 0.00 0.00 0.00 51 1018.3
20260902063801 24 169 6.4 14.5 0.00 0.00 0.00 51 1018.3
20260902063301 24 164 4.8 14.5 0.00 0.00 0.00 50 1018.1
20260902062800 25 206 4.8 16.1 0.00 0.00 0.00 50 1018.2
20260902062305 25 182 3.2 16.1 0.00 0.00 0.00 50 1018.1
20260902061759 25 154 6.4 14.5 0.00 0.00 0.00 50 1018.0
20260902061616 25 165 4.8 19.3 0.00 0.00 0.00 49 1018.1
20260902061126 25 164 6.4 19.3 0.00 0.00 0.00 50 1018.0
20260902060300 25 147 4.8 11.3 0.00 0.00 0.00 50 1018.1
20260902055801 25 175 4.8 11.3 0.00 0.00 0.00 50 1018.1
20260902055301 25 137 3.2 11.3 0.00 0.00 0.00 50 1018.1
20260902055126 25 178 6.4 11.3 0.00 0.00 0.00 50 1018.1
20260902054300 25 113 3.2 9.7 0.00 0.00 0.00 50 1018.1
20260902053800 25 161 6.4 9.7 0.00 0.00 0.00 50 1018.1
20260902053629 25 147 4.8 11.3 0.00 0.00 0.00 50 1018.1
20260902052802 25 185 3.2 11.3 0.00 0.00 0.00 50 1018.1
20260902052259 25 199 4.8 11.3 0.00 0.00 0.00 49 1018.0
20260902051800 25 172 3.2 9.7 0.00 0.00 0.00 49 1018.1
20260902051301 25 151 3.2 11.3 0.00 0.00 0.00 49 1018.1
20260902050800 25 155 4.8 11.3 0.00 0.00 0.00 49 1018.0
20260902050259 25 200 3.2 11.3 0.00 0.00 0.00 49 1018.1
20260902050024 26 161 4.8 11.3 0.00 0.00 0.00 48 1018.1
20260902045259 26 152 4.8 11.3 0.00 0.00 0.00 48 1018.1
20260902044759 26 197 6.4 11.3 0.00 0.00 0.00 47 1018.0
20260902044638 26 137 4.8 11.3 0.00 0.00 0.00 47 1018.1
20260902043800 26 124 4.8 11.3 0.00 0.00 0.00 47 1018.1
20260902043301 26 131 6.4 11.3 0.00 0.00 0.00 46 1018.1
20260902042802 26 164 4.8 11.3 0.00 0.00 0.00 46 1018.1
20260902042300 26 104 4.8 9.7 0.00 0.00 0.00 46 1018.0
20260902041839 26 176 6.4 11.3 0.00 0.00 0.00 45 1018.0
20260902041306 26 172 4.8 14.5 0.00 0.00 0.00 45 1018.1
20260902040800 27 185 6.4 14.5 0.00 0.00 0.00 45 1018.0
20260902040259 27 176 4.8 14.5 0.00 0.00 0.00 44 1018.1
20260902035800 27 144 4.8 14.5 0.00 0.00 0.00 44 1018.0
20260902035301 27 188 4.8 14.5 0.00 0.00 0.00 44 1017.8
20260902034759 26 104 6.4 14.5 0.00 0.00 0.00 45 1018.0
20260902034259 26 137 3.2 9.7 0.00 0.00 0.00 45 1017.8
20260902034025 27 131 4.8 9.7 0.00 0.00 0.00 45 1017.8
20260902033804 27 131 4.8 9.7 0.00 0.00 0.00 45 1017.8
20260902033630 27 94 6.4 11.3 0.00 0.00 0.00 43 1017.8
20260902032801 27 134 4.8 17.7 0.00 0.00 0.00 42 1017.7
20260902032258 27 144 4.8 17.7 0.00 0.00 0.00 42 1017.7
20260902031759 27 190 8.0 14.5 0.00 0.00 0.00 42 1017.6
20260902031259 27 148 8.0 11.3 0.00 0.00 0.00 42 1017.6
20260902030800 27 183 4.8 11.3 0.00 0.00 0.00 43 1017.5
20260902030259 27 179 4.8 11.3 0.00 0.00 0.00 43 1017.5
20260902025847 28 131 6.4 11.3 0.00 0.00 0.00 42 1017.3
20260902025832 27 131 3.2 11.3 0.00 0.00 0.00 42 1017.3
20260902025817 27 152 4.8 11.3 0.00 0.00 0.00 42 1017.4
20260902024305 28 162 3.2 9.7 0.00 0.00 0.00 42 1017.3
20260902023800 28 196 3.2 11.3 0.00 0.00 0.00 41 1017.2
20260902023301 28 164 4.8 11.3 0.00 0.00 0.00 41 1017.1
20260902022801 28 192 4.8 11.3 0.00 0.00 0.00 40 1017.1
20260902022300 28 114 4.8 11.3 0.00 0.00 0.00 40 1016.9
20260902021800 28 138 4.8 11.3 0.00 0.00 0.00 40 1016.8
20260902021258 28 110 3.2 11.3 0.00 0.00 0.00 40 1016.8
20260902020806 29 203 3.2 11.3 0.00 0.00 0.00 39 1016.7
20260902020300 29 106 4.8 11.3 0.00 0.00 0.00 39 1016.6
20260902015804 29 148 3.2 11.3 0.00 0.00 0.00 39 1016.6
20260902015300 29 141 4.8 9.7 0.00 0.00 0.00 38 1016.6
20260902014802 29 161 6.4 11.3 0.00 0.00 0.00 38 1016.7
20260902014259 30 173 6.4 14.5 0.00 0.00 0.00 38 1016.5
20260902013759 30 148 6.4 17.7 0.00 0.00 0.00 37 1016.6
20260902013300 30 133 6.4 17.7 0.00 0.00 0.00 37 1016.6
20260902012759 30 179 3.2 16.1 0.00 0.00 0.00 37 1016.5
20260902012301 30 164 4.8 16.1 0.00 0.00 0.00 37 1016.5
20260902011759 30 172 4.8 14.5 0.00 0.00 0.00 37 1016.5
20260902011259 30 134 6.4 14.5 0.00 0.00 0.00 36 1016.5
20260902010801 31 148 6.4 14.5 0.00 0.00 0.00 35 1016.4
20260902010606 31 173 6.4 16.1 0.00 0.00 0.00 34 1016.3
20260902010126 31 171 8.0 17.7 0.00 0.00 0.00 34 1016.3
20260902005300 31 149 6.4 17.7 0.00 0.00 0.00 34 1016.2
20260902004759 31 172 9.7 29.0 0.00 0.00 0.00 33 1016.1
20260902004300 32 216 6.4 29.0 0.00 0.00 0.00 33 1016.2
20260902004025 32 210 9.7 24.1 0.00 0.00 0.00 32 1016.2
20260902003300 32 114 4.8 24.1 0.00 0.00 0.00 33 1016.2
20260902002759 32 142 9.7 20.9 0.00 0.00 0.00 33 1016.1
20260902002300 32 162 4.8 17.7 0.00 0.00 0.00 31 1016.2
20260902001803 32 135 8.0 20.9 0.00 0.00 0.00 31 1016.1
20260902001259 32 243 9.7 20.9 0.00 0.00 0.00 31 1016.1
20260902000800 32 209 8.0 17.7 0.00 0.00 0.00 30 1016.1
20260902000523 32 203 9.7 17.7 0.00 0.00 0.00 31 1015.9
20260901235801 33 228 8.0 24.1 0.00 0.00 0.00 30 1015.9
20260901235632 33 206 8.0 24.1 0.00 0.00 0.00 29 1015.9
20260901234800 33 192 9.7 24.1 0.00 0.00 0.00 29 1015.8
20260901234300 33 189 8.0 24.1 0.00 0.00 0.00 29 1015.8
20260901233800 33 213 8.0 25.7 0.00 0.00 0.00 29 1015.7
20260901233259 33 200 11.3 25.7 0.00 0.00 0.00 28 1015.6
20260901232803 33 221 9.7 22.5 0.00 0.00 0.00 29 1015.7
20260901232301 33 238 9.7 22.5 0.00 0.00 0.00 28 1015.6
20260901231803 33 231 9.7 22.5 0.00 0.00 0.00 29 1015.5
20260901231300 34 120 9.7 19.3 0.00 0.00 0.00 27 1015.5
20260901230759 34 85 9.7 20.9 0.00 0.00 0.00 28 1015.6
20260901230258 34 107 4.8 20.9 0.00 0.00 0.00 28 1015.6
20260901230019 34 195 6.4 22.5 0.00 0.00 0.00 28 1015.7
20260901225919 34 233 8.0 17.7 0.00 0.00 0.00 29 1015.7
20260901224759 34 141 11.3 29.0 0.00 0.00 0.00 27 1015.7
20260901224259 35 175 14.5 29.0 0.00 0.00 0.00 27 1015.7
20260901223759 35 168 9.7 25.7 0.00 0.00 0.00 28 1015.7
20260901223259 35 171 6.4 19.3 0.00 0.00 0.00 28 1015.8
20260901222803 35 179 6.4 19.3 0.00 0.00 0.00 29 1015.8
20260901222633 35 197 6.4 19.3 0.00 0.00 0.00 30 1015.9
20260901221759 35 61 9.7 25.7 0.00 0.00 0.00 28 1015.9
20260901221258 35 247 11.3 25.7 0.00 0.00 0.00 28 1015.9
20260901220801 34 158 9.7 29.0 0.00 0.00 0.00 30 1016.2
20260901220259 33 223 6.4 29.0 0.00 0.00 0.00 30 1016.1
20260901215800 33 195 14.5 25.7 0.00 0.00 0.00 30 1016.2
20260901215340 35 199 12.9 20.9 0.00 0.00 0.00 30 1016.2
20260901215322 34 207 9.7 20.9 0.00 0.00 0.00 29 1016.3
20260901213801 35 216 11.3 25.7 0.00 0.00 0.00 30 1016.3
20260901213505 35 130 3.2 30.6 0.00 0.00 0.00 29 1016.6
20260901213417 35 142 8.0 30.6 0.00 0.00 0.00 30 1016.4
20260901212300 35 145 11.3 24.1 0.00 0.00 0.00 31 1016.6
20260901211758 35 166 3.2 22.5 0.00 0.00 0.00 30 1016.7
20260901211300 35 107 11.3 22.5 0.00 0.00 0.00 31 1016.7
20260901211022 34 104 9.7 24.1 0.00 0.00 0.00 31 1016.7
20260901210804 34 104 9.7 24.1 0.00 0.00 0.00 31 1016.7
20260901210259 35 117 8.0 24.1 0.00 0.00 0.00 32 1016.9
20260901205800 35 180 14.5 24.1 0.00 0.00 0.00 32 1016.9
20260901205259 35 155 6.4 24.1 0.00 0.00 0.00 31 1017.1
20260901204759 35 147 12.9 22.5 0.00 0.00 0.00 31 1017.2
20260901204259 35 147 8.0 20.9 0.00 0.00 0.00 33 1017.2
20260901204130 34 137 6.4 25.7 0.00 0.00 0.00 33 1017.3
20260901203300 32 103 12.9 25.7 0.00 0.00 0.00 33 1017.4
20260901202759 33 231 8.0 22.5 0.00 0.00 0.00 33 1017.5
20260901202300 33 100 6.4 20.9 0.00 0.00 0.00 33 1017.6
20260901201800 33 121 6.4 20.9 0.00 0.00 0.00 33 1017.7
20260901201301 35 193 9.7 22.5 0.00 0.00 0.00 32 1017.7
20260901200800 34 197 9.7 30.6 0.00 0.00 0.00 32 1018.0
20260901200259 34 193 12.9 30.6 0.00 0.00 0.00 34 1017.8
20260901195801 33 190 8.0 24.1 0.00 0.00 0.00 34 1018.1
20260901195642 33 109 8.0 24.1 0.00 0.00 0.00 33 1018.1
20260901194759 33 161 8.0 20.9 0.00 0.00 0.00 33 1018.1
20260901194301 34 197 11.3 22.5 0.00 0.00 0.00 32 1018.2
20260901193759 35 130 9.7 22.5 0.00 0.00 0.00 33 1018.2
20260901193300 33 209 8.0 17.7 0.00 0.00 0.00 34 1018.2
20260901193014 33 200 8.0 20.9 0.00 0.00 0.00 36 1018.3
20260901192915 32 116 6.4 17.7 0.00 0.00 0.00 34 1018.4
20260901192108 33 219 9.7 25.7 0.00 0.00 0.00 34 1018.5
20260901191644 33 114 8.0 25.7 0.00 0.00 0.00 33 1018.5
20260901190800 34 109 9.7 25.7 0.00 0.00 0.00 32 1018.4
20260901190300 34 209 9.7 25.7 0.00 0.00 0.00 33 1018.5
20260901185807 34 166 8.0 20.9 0.00 0.00 0.00 33 1018.5
20260901185300 33 87 6.4 22.5 0.00 0.00 0.00 33 1018.5
20260901184759 33 193 11.3 22.5 0.00 0.00 0.00 35 1018.7
20260901184301 33 124 11.3 20.9 0.00 0.00 0.00 34 1018.7
20260901184138 34 140 6.4 19.3 0.00 0.00 0.00 33 1018.8
20260901183300 34 178 6.4 20.9 0.00 0.00 0.00 33 1018.8
20260901183154 33 230 6.4 25.7 0.00 0.00 0.00 36 1019.1
20260901182300 33 144 12.9 25.7 0.00 0.00 0.00 34 1019.1
20260901181759 33 185 4.8 22.5 0.00 0.00 0.00 34 1019.1
20260901181259 33 158 9.7 20.9 0.00 0.00 0.00 36 1019.2
20260901180807 32 196 6.4 24.1 0.00 0.00 0.00 36 1019.2
20260901180304 33 200 8.0 24.1 0.00 0.00 0.00 37 1019.3
20260901175800 32 230 4.8 19.3 0.00 0.00 0.00 36 1019.4
20260901175300 31 186 8.0 20.9 0.00 0.00 0.00 37 1019.4
20260901174759 32 145 9.7 20.9 0.00 0.00 0.00 35 1019.4
20260901174259 33 203 9.7 20.9 0.00 0.00 0.00 34 1019.3
20260901173759 33 195 11.3 20.9 0.00 0.00 0.00 36 1019.5
20260901173259 33 97 8.0 22.5 0.00 0.00 0.00 37 1019.5
20260901172800 33 176 8.0 22.5 0.00 0.00 0.00 36 1019.5
20260901172257 32 202 9.7 22.5 0.00 0.00 0.00 39 1019.5
20260901171758 31 204 6.4 22.5 0.00 0.00 0.00 40 1019.6
20260901171258 31 196 11.3 19.3 0.00 0.00 0.00 40 1019.7
20260901171147 31 252 8.0 19.3 0.00 0.00 0.00 41 1019.7
20260901170258 31 206 8.0 20.9 0.00 0.00 0.00 40 1019.6
20260901165804 31 206 8.0 20.9 0.00 0.00 0.00 40 1019.6
20260901165300 32 193 9.7 20.9 0.00 0.00 0.00 41 1019.6
20260901165142 32 233 9.7 19.3 0.00 0.00 0.00 41 1019.6
20260901164257 31 252 9.7 19.3 0.00 0.00 0.00 43 1019.6
20260901163759 32 154 8.0 19.3 0.00 0.00 0.00 42 1019.6
20260901163259 31 255 11.3 19.3 0.00 0.00 0.00 46 1019.6
20260901162759 31 254 9.7 17.7 0.00 0.00 0.00 44 1019.6
20260901162258 31 259 6.4 20.9 0.00 0.00 0.00 45 1019.6
20260901162132 31 214 9.7 20.9 0.00 0.00 0.00 46 1019.5